User: anonymous   Login
Location: Hohenfelde
(53.8441°N, 9.6220°E)
Time: 10:25:36
(UTC+00:00)
Language:

SL-8 R/B - Orbit

View from above orbital plane
View from above orbital plane
View from above satellite
View from above satellite

Ground track
Ground track

The orbit data is extracted from the following two-line orbital elements,

1 33066U 08031G   20270.71117424 -.00000131 +00000-0 +10887-4 0  9992
2 33066 048.4428 268.1606 0007190 142.0831 218.0587 14.69713978658842
Epoch (UTC): 26 September 2020 17:04:05
Eccentricity: 0.0007190
inclination: 48.4428°
perigee height: 657 km
apogee height: 667 km
right ascension of ascending node: 268.1606°
argument of perigee: 142.0831°
revolutions per day: 14.69713978
mean anomaly at epoch: 218.0587°
orbit number at epoch: 65884

The dashed part of the orbit path shows where the satellite is in the earth's shadow,  

DLR